Location: Unspecified
(37.4172°S, 0.0000°E)
Time: 04:40:39
(UTC+00:00)

DIWATA 2B (PO-101) - Visible Passes

Search period start: 05 April 2026 00:00
Search period end: 15 April 2026 00:00
Orbit: 557 x 576 km, 98.1° (Epoch: 29 March)

Date Brightness Start Highest point End Pass type
(mag) Time Alt. Az. Time Alt. Az. Time Alt. Az.
5 Apr ? 18:37:29 10° NNW 18:40:52 24° W 18:44:17 10° SW visible
6 Apr ? 18:38:18 10° NNW 18:41:39 24° W 18:45:03 10° SW visible
7 Apr ? 18:39:06 10° NNW 18:42:27 24° W 18:45:49 10° SW visible
8 Apr ? 18:39:55 10° NNW 18:43:14 23° W 18:46:35 10° SW visible
9 Apr ? 18:40:43 10° NNW 18:44:00 23° W 18:47:21 10° SW visible
10 Apr ? 18:41:31 10° NNW 18:44:47 23° W 18:48:06 10° SW visible
11 Apr ? 18:42:19 10° NNW 18:45:33 22° W 18:48:51 10° SW visible
12 Apr ? 18:43:06 10° NNW 18:46:19 22° W 18:49:35 10° SW visible
13 Apr ? 18:43:53 10° NNW 18:47:05 22° W 18:50:19 10° SW visible
14 Apr ? 18:44:40 10° NW 18:47:50 21° W 18:51:03 10° SW visible
